Date String (YYYY-MM-DD hh:mm:ss) UTC,Instrument flags,Ambient pressure (hPa),Sample flow (lpm),Bypass flow (lpm),Sample temperature (°C),Ambient temperature (°C),ASC tube jacket temperature (°C),LED temperature (°C),Box temperature (°C),Sample RH (%),Span deviation,Mass concentration (μg/m³),Mass concentration (μg/m³),Mass concentration (μg/m³)
DateTimeUTC,F1_M11,P_M11,Q1_M11,Q2_M11,T1_M11,T2_M11,T3_M11,T4_M11,T5_M11,U1_M11,ZSPAN_M11,X0_M11,X2_M11,X1_M11
2022-04-07 09:00:00,,0833.1,4.98,0.00,22.0,21.1,00.0,31.1,23.5,06.0,0000.0,0003.69,0001.16,0000.54
2022-04-07 09:01:00,,0833.2,5.00,0.00,21.9,21.0,00.0,31.1,23.5,06.0,0000.0,0003.61,0001.10,0000.55
2022-04-07 09:02:00,,0833.2,5.00,0.00,21.9,21.0,00.0,31.1,23.5,06.0,0000.0,0003.76,0001.13,0000.56
2022-04-07 09:03:00,,0833.2,5.00,0.00,21.9,20.9,00.0,31.0,23.4,06.0,0000.0,0003.47,0001.12,0000.55
2022-04-07 09:04:00,,0833.1,5.00,0.00,21.8,20.8,00.0,31.0,23.4,06.0,0000.0,0003.30,0001.11,0000.56
2022-04-07 09:05:00,,0833.1,5.00,0.00,21.8,20.7,00.0,31.0,23.3,06.1,0000.0,0003.39,0001.07,0000.56
2022-04-07 09:06:00,,0833.1,5.00,0.00,21.7,20.6,00.0,30.9,23.2,06.2,0000.0,0003.52,0001.09,0000.56
2022-04-07 09:07:00,,0833.2,5.00,0.00,21.6,20.6,00.0,30.9,23.2,06.2,0000.0,0003.84,0001.13,0000.57
2022-04-07 09:08:00,,0833.2,5.01,0.00,21.6,20.7,00.0,30.9,23.2,06.2,0000.0,0003.60,0001.17,0000.57
2022-04-07 09:09:00,,0833.2,5.00,0.00,21.7,21.6,00.0,30.9,23.4,06.2,0000.0,0004.04,0001.17,0000.57
2022-04-07 09:10:00,,0833.2,5.02,0.00,21.9,22.6,00.0,30.9,23.8,06.1,0000.0,0004.00,0001.14,0000.57
2022-04-07 09:11:00,,0833.2,4.99,0.00,22.0,23.0,00.0,30.9,24.0,06.1,0000.0,0004.04,0001.14,0000.56
2022-04-07 09:12:00,,0833.2,5.01,0.00,22.1,22.8,00.0,31.0,24.0,06.0,0000.0,0003.93,0001.13,0000.56
2022-04-07 09:13:00,,0833.1,4.99,0.00,22.1,22.5,00.0,31.0,24.0,06.1,0000.0,0004.72,0001.13,0000.55
2022-04-07 09:14:00,,0833.1,5.00,0.00,22.1,22.3,00.0,31.0,23.9,06.1,0000.0,0005.10,0001.13,0000.56
2022-04-07 09:15:00,,0833.1,4.99,0.00,22.1,22.0,00.0,31.0,23.8,06.1,0000.0,0005.43,0001.17,0000.58
2022-04-07 09:16:00,,0833.2,5.02,0.00,22.1,21.7,00.0,31.0,23.8,06.2,0000.0,0005.39,0001.15,0000.58
2022-04-07 09:17:00,,0833.2,4.99,0.00,22.0,21.6,00.0,31.0,23.7,06.2,0000.0,0005.21,0001.12,0000.58
2022-04-07 09:18:00,,0833.1,5.01,0.00,22.0,21.4,00.0,31.0,23.6,06.2,0000.0,0005.14,0001.11,0000.58
2022-04-07 09:19:00,,0833.1,5.00,0.00,21.9,21.1,00.0,31.0,23.5,06.3,0000.0,0005.11,0001.15,0000.59
2022-04-07 09:20:00,,0833.1,5.00,0.00,21.9,21.0,00.0,31.0,23.4,06.4,0000.0,0004.83,0001.16,0000.59
2022-04-07 09:21:00,,0833.1,4.99,0.00,21.8,20.9,00.0,30.9,23.4,06.5,0000.0,0004.68,0001.19,0000.60
2022-04-07 09:22:00,,0833.2,5.00,0.00,21.8,20.9,00.0,30.9,23.4,06.4,0000.0,0004.65,0001.18,0000.60
2022-04-07 09:23:00,,0833.2,5.00,0.00,21.8,20.8,00.0,30.9,23.3,06.5,0000.0,0004.94,0001.25,0000.62
2022-04-07 09:24:00,,0833.2,5.00,0.00,21.7,20.8,00.0,30.9,23.3,06.5,0000.0,0004.81,0001.27,0000.64
2022-04-07 09:25:00,,0833.2,5.00,0.00,21.7,20.8,00.0,30.9,23.3,06.5,0000.0,0003.95,0001.27,0000.66
2022-04-07 09:26:00,,0833.2,5.01,0.00,21.7,20.8,00.0,30.8,23.3,06.5,0000.0,0003.69,0001.25,0000.66
2022-04-07 09:27:00,,0833.2,4.99,0.00,21.7,20.8,00.0,30.8,23.3,06.5,0000.0,0003.69,0001.30,0000.67
2022-04-07 09:28:00,,0833.3,5.00,0.00,21.7,20.8,00.0,30.8,23.3,06.5,0000.0,0003.53,0001.31,0000.67
2022-04-07 09:29:00,,0833.2,5.00,0.00,21.7,20.8,00.0,30.8,23.3,06.6,0000.0,0003.09,0001.32,0000.68
2022-04-07 09:30:00,,0833.2,4.99,0.00,21.7,21.0,00.0,30.8,23.3,06.6,0000.0,0003.17,0001.32,0000.68
2022-04-07 09:31:00,,0833.2,5.02,0.00,21.8,21.9,00.0,30.8,23.6,06.5,0000.0,0003.16,0001.29,0000.70
2022-04-07 09:32:00,,0833.3,4.99,0.00,21.9,22.8,00.0,30.9,23.9,06.5,0000.0,0004.71,0001.27,0000.70
2022-04-07 09:33:00,,0833.3,5.02,0.00,22.1,23.0,00.0,30.9,24.1,06.4,0000.0,0004.88,0001.33,0000.70
2022-04-07 09:34:00,,0833.3,4.99,0.00,22.1,22.7,00.0,30.9,24.0,06.4,0000.0,0004.68,0001.29,0000.69
2022-04-07 09:35:00,,0833.3,5.01,0.00,22.1,22.4,00.0,30.9,23.9,06.4,0000.0,0004.44,0001.30,0000.68
2022-04-07 09:36:00,,0833.3,4.99,0.00,22.1,22.1,00.0,30.9,23.9,06.3,0000.0,0004.46,0001.30,0000.66
2022-04-07 09:37:00,,0833.2,4.99,0.00,22.1,21.9,00.0,30.9,23.8,06.4,0000.0,0004.60,0001.36,0000.66
2022-04-07 09:38:00,,0833.2,5.01,0.00,22.0,21.6,00.0,30.9,23.7,06.4,0000.0,0005.08,0001.39,0000.66
2022-04-07 09:39:00,,0833.2,5.01,0.00,22.0,21.4,00.0,30.9,23.7,06.4,0000.0,0005.35,0001.40,0000.66
2022-04-07 09:40:00,,0833.3,4.99,0.00,22.0,21.3,00.0,30.9,23.6,06.4,0000.0,0005.28,0001.37,0000.65
2022-04-07 09:41:00,,0833.3,5.00,0.00,21.9,21.1,00.0,30.9,23.5,06.4,0000.0,0005.02,0001.32,0000.64
2022-04-07 09:42:00,,0833.3,5.01,0.00,21.8,21.0,00.0,30.9,23.4,06.4,0000.0,0004.96,0001.31,0000.63
2022-04-07 09:43:00,,0833.3,5.01,0.00,21.8,20.9,00.0,30.9,23.3,06.5,0000.0,0003.57,0001.30,0000.62
2022-04-07 09:44:00,,0833.3,5.00,0.00,21.8,20.9,00.0,30.9,23.3,06.5,0000.0,0003.92,0001.24,0000.61
2022-04-07 09:45:00,,0833.3,4.98,0.00,21.7,20.9,00.0,30.8,23.3,06.5,0000.0,0004.11,0001.25,0000.62
2022-04-07 09:46:00,,0833.2,5.01,0.00,21.7,20.9,00.0,30.8,23.4,06.5,0000.0,0004.18,0001.28,0000.62
2022-04-07 09:47:00,,0833.1,5.01,0.00,21.7,20.8,00.0,30.8,23.3,06.6,0000.0,0004.10,0001.26,0000.63
2022-04-07 09:48:00,,0833.2,5.01,0.00,21.7,20.8,00.0,30.8,23.2,06.6,0000.0,0004.06,0001.27,0000.64
2022-04-07 09:49:00,,0833.2,5.00,0.00,21.6,20.7,00.0,30.8,23.2,06.6,0000.0,0003.72,0001.26,0000.64
2022-04-07 09:50:00,,0833.2,4.98,0.00,21.6,20.7,00.0,30.7,23.2,06.6,0000.0,0003.37,0001.26,0000.64
2022-04-07 09:51:00,,0833.3,5.01,0.00,21.6,21.0,00.0,30.7,23.3,06.6,0000.0,0003.54,0001.31,0000.67
2022-04-07 09:52:00,,0833.3,5.00,0.00,21.7,22.0,00.0,30.8,23.6,06.6,0000.0,0003.70,0001.33,0000.68
2022-04-07 09:53:00,,0833.3,5.00,0.00,21.9,22.9,00.0,30.8,23.9,06.6,0000.0,0003.90,0001.34,0000.68
2022-04-07 09:54:00,,0833.2,5.01,0.00,22.0,22.9,00.0,30.8,24.0,06.6,0000.0,0003.77,0001.31,0000.67
2022-04-07 09:55:00,,0833.1,4.99,0.00,22.0,22.6,00.0,30.9,23.9,06.5,0000.0,0003.17,0001.32,0000.67
2022-04-07 09:56:00,,0833.1,5.00,0.00,22.0,22.2,00.0,30.9,23.8,06.6,0000.0,0003.10,0001.30,0000.66
2022-04-07 09:57:00,,0833.1,4.99,0.00,21.9,21.9,00.0,30.9,23.7,06.6,0000.0,0003.04,0001.26,0000.65
2022-04-07 09:58:00,,0833.2,5.02,0.00,21.9,21.6,00.0,30.9,23.5,06.6,0000.0,0003.84,0001.28,0000.64
2022-04-07 09:59:00,,0833.1,5.00,0.00,21.9,21.4,00.0,30.9,23.5,06.6,0000.0,0004.94,0001.21,0000.64
